| time (UTC) | temp F | wind direction | speed MPH | gust MPH | rain 1hr in | rain 24hr in | rain mn in | humidity % | barometer mb |
| 20260831133054 | 40 | 86 | 0.0 | 2.0 | 0.00 | 0.00 | 0.00 | 93 | 1000.2 |
| 20260831131607 | 40 | 85 | 0.0 | 2.0 | 0.00 | 0.00 | 0.00 | 93 | 1000.3 |
| 20260831130106 | 40 | 85 | 0.0 | 0.0 | 0.00 | 0.00 | 0.00 | 93 | 1000.5 |
| 20260831124558 | 40 | 87 | 0.0 | 2.0 | 0.00 | 0.00 | 0.00 | 93 | 1000.6 |
| 20260831123051 | 40 | 87 | 0.0 | 3.0 | 0.00 | 0.00 | 0.00 | 92 | 1000.6 |
| 20260831121551 | 40 | 87 | 0.0 | 2.0 | 0.00 | 0.00 | 0.00 | 91 | 1000.8 |
| 20260831120044 | 40 | 87 | 0.0 | 2.0 | 0.00 | 0.00 | 0.00 | 91 | 1001.1 |
| 20260831114542 | 40 | 78 | 0.0 | 0.0 | 0.00 | 0.00 | 0.00 | 90 | 1001.2 |
| 20260831113042 | 40 | 78 | 0.0 | 0.0 | 0.00 | 0.00 | 0.00 | 90 | 1001.2 |
| 20260831111540 | 40 | 78 | 0.0 | 0.0 | 0.00 | 0.00 | 0.00 | 88 | 1001.3 |
| 20260831110038 | 40 | 77 | 0.0 | 0.0 | 0.00 | 0.00 | 0.00 | 88 | 1001.4 |
| 20260831104537 | 40 | 78 | 0.0 | 0.0 | 0.00 | 0.00 | 0.00 | 88 | 1001.6 |
| 20260831103036 | 40 | 78 | 0.0 | 0.0 | 0.00 | 0.00 | 0.00 | 87 | 1001.6 |
| 20260831101535 | 41 | 79 | 0.0 | 0.0 | 0.00 | 0.00 | 0.00 | 87 | 1001.7 |
| 20260831100046 | 41 | 78 | 0.0 | 0.0 | 0.00 | 0.00 | 0.00 | 86 | 1001.8 |
| 20260831094531 | 41 | 78 | 0.0 | 0.0 | 0.00 | 0.00 | 0.00 | 86 | 1001.9 |
| 20260831093040 | 41 | 77 | 0.0 | 0.0 | 0.00 | 0.00 | 0.00 | 86 | 1002.2 |
| 20260831091526 | 41 | 78 | 0.0 | 2.0 | 0.00 | 0.00 | 0.00 | 85 | 1002.3 |
| 20260831090025 | 41 | 78 | 0.0 | 0.0 | 0.00 | 0.00 | 0.00 | 85 | 1002.4 |
| 20260831084523 | 42 | 78 | 0.0 | 2.0 | 0.00 | 0.00 | 0.00 | 84 | 1002.5 |
| 20260831083023 | 42 | 78 | 0.0 | 0.0 | 0.00 | 0.00 | 0.00 | 84 | 1002.6 |
| 20260831081526 | 41 | 77 | 0.0 | 4.0 | 0.00 | 0.00 | 0.00 | 86 | 1002.6 |
| 20260831080017 | 41 | 27 | 0.0 | 2.0 | 0.00 | 0.00 | 0.00 | 86 | 1002.9 |
| 20260831074524 | 41 | 27 | 0.0 | 2.0 | 0.00 | 0.00 | 0.00 | 86 | 1003.1 |
| 20260831073018 | 41 | 27 | 0.0 | 1.0 | 0.00 | 0.00 | 0.00 | 85 | 1003.3 |
| 20260831071513 | 41 | 349 | 0.0 | 0.0 | 0.00 | 0.00 | 0.00 | 84 | 1003.5 |
| 20260831070014 | 41 | 359 | 0.0 | 0.0 | 0.00 | 0.00 | 0.00 | 83 | 1003.6 |
| 20260831064511 | 42 | 359 | 0.0 | 0.0 | 0.00 | 0.00 | 0.00 | 82 | 1003.8 |
| 20260831063009 | 42 | 349 | 0.0 | 0.0 | 0.00 | 0.00 | 0.00 | 82 | 1003.9 |
| 20260831061508 | 42 | 349 | 0.0 | 0.0 | 0.00 | 0.00 | 0.00 | 81 | 1004.0 |
| 20260831060005 | 43 | 359 | 0.0 | 0.0 | 0.00 | 0.00 | 0.00 | 80 | 1004.3 |
| 20260831054505 | 44 | 349 | 0.0 | 0.0 | 0.00 | 0.00 | 0.00 | 78 | 1004.5 |
| 20260831053008 | 44 | 359 | 0.0 | 0.0 | 0.00 | 0.00 | 0.00 | 77 | 1004.7 |
| 20260831051613 | 45 | 348 | 0.0 | 0.0 | 0.00 | 0.00 | 0.00 | 75 | 1005.0 |
| 20260831050057 | 46 | 348 | 0.0 | 0.0 | 0.00 | 0.00 | 0.00 | 73 | 1005.2 |
| 20260831044557 | 47 | 359 | 0.0 | 0.0 | 0.00 | 0.00 | 0.00 | 71 | 1005.3 |
| 20260831043055 | 48 | 348 | 0.0 | 2.0 | 0.00 | 0.00 | 0.00 | 69 | 1005.5 |
| 20260831041553 | 49 | 349 | 0.0 | 0.0 | 0.00 | 0.00 | 0.00 | 67 | 1005.7 |
| 20260831040051 | 50 | 348 | 0.0 | 0.0 | 0.00 | 0.00 | 0.00 | 64 | 1005.8 |
| 20260831034550 | 51 | 348 | 0.0 | 2.0 | 0.00 | 0.00 | 0.00 | 64 | 1005.9 |
| 20260831033054 | 51 | 348 | 0.0 | 0.0 | 0.00 | 0.00 | 0.00 | 62 | 1006.1 |
| 20260831031548 | 52 | 348 | 0.0 | 0.0 | 0.00 | 0.00 | 0.00 | 59 | 1006.2 |
| 20260831030045 | 52 | 349 | 0.0 | 0.0 | 0.00 | 0.00 | 0.00 | 54 | 1006.5 |
| 20260831024543 | 53 | 348 | 0.0 | 0.0 | 0.00 | 0.00 | 0.00 | 55 | 1006.7 |
| 20260831023042 | 53 | 348 | 0.0 | 0.0 | 0.00 | 0.00 | 0.00 | 53 | 1006.9 |
| 20260831021542 | 52 | 359 | 0.0 | 0.0 | 0.00 | 0.00 | 0.00 | 55 | 1007.2 |
| 20260831020059 | 52 | 348 | 0.0 | 0.0 | 0.00 | 0.00 | 0.00 | 55 | 1007.3 |
| 20260831014537 | 52 | 348 | 0.0 | 3.0 | 0.00 | 0.00 | 0.00 | 54 | 1007.5 |
| 20260831013036 | 52 | 348 | 1.0 | 4.0 | 0.00 | 0.00 | 0.00 | 55 | 1007.7 |
| 20260831011534 | 52 | 331 | 0.0 | 4.0 | 0.00 | 0.00 | 0.00 | 53 | 1007.9 |
| 20260831010032 | 53 | 28 | 1.0 | 5.0 | 0.00 | 0.00 | 0.00 | 55 | 1008.0 |
| 20260831004534 | 53 | 259 | 0.0 | 3.0 | 0.00 | 0.00 | 0.00 | 53 | 1008.2 |
| 20260831003028 | 53 | 260 | 3.0 | 6.0 | 0.00 | 0.00 | 0.00 | 53 | 1008.3 |
| 20260831001529 | 53 | 253 | 2.0 | 3.0 | 0.00 | 0.00 | 0.00 | 53 | 1008.5 |
| 20260831000026 | 54 | 274 | 1.0 | 7.0 | 0.00 | 0.00 | 0.00 | 51 | 1008.7 |
| 20260830234538 | 53 | 299 | 0.0 | 4.0 | 0.00 | 0.00 | 0.00 | 52 | 1008.8 |
| 20260830233026 | 53 | 116 | 0.0 | 5.0 | 0.00 | 0.00 | 0.00 | 55 | 1009.0 |
| 20260830231521 | 52 | 337 | 2.0 | 5.0 | 0.00 | 0.00 | 0.00 | 56 | 1009.4 |
| 20260830230016 | 52 | 349 | 3.0 | 6.0 | 0.00 | 0.00 | 0.00 | 56 | 1009.8 |
| 20260830224515 | 52 | 33 | 2.0 | 6.0 | 0.00 | 0.00 | 0.00 | 56 | 1009.9 |
| 20260830223012 | 51 | 249 | 0.0 | 5.0 | 0.00 | 0.00 | 0.00 | 58 | 1010.0 |
| 20260830221513 | 51 | 323 | 4.0 | 9.0 | 0.00 | 0.00 | 0.00 | 57 | 1010.2 |
| 20260830220009 | 52 | 267 | 1.0 | 5.0 | 0.00 | 0.00 | 0.00 | 56 | 1010.3 |
| 20260830214507 | 51 | 234 | 0.0 | 6.0 | 0.00 | 0.00 | 0.00 | 58 | 1010.5 |
| 20260830213006 | 50 | 218 | 0.0 | 5.0 | 0.00 | 0.00 | 0.00 | 57 | 1010.7 |
| 20260830211502 | 50 | 359 | 2.0 | 6.0 | 0.00 | 0.00 | 0.00 | 60 | 1011.1 |
| 20260830210103 | 51 | 235 | 1.0 | 4.0 | 0.00 | 0.00 | 0.00 | 63 | 1011.2 |
| 20260830204602 | 50 | 10 | 0.0 | 8.0 | 0.00 | 0.00 | 0.00 | 61 | 1011.3 |
| 20260830203058 | 49 | 38 | 1.0 | 7.0 | 0.00 | 0.00 | 0.00 | 64 | 1011.6 |
| 20260830201559 | 49 | 274 | 0.0 | 4.0 | 0.00 | 0.00 | 0.00 | 65 | 1011.8 |
| 20260830200051 | 49 | 266 | 4.0 | 8.0 | 0.00 | 0.00 | 0.00 | 68 | 1012.0 |
| 20260830194548 | 48 | 16 | 1.0 | 7.0 | 0.00 | 0.00 | 0.00 | 71 | 1012.3 |
| 20260830193044 | 47 | 330 | 0.0 | 5.0 | 0.00 | 0.00 | 0.00 | 72 | 1012.6 |
| 20260830191544 | 47 | 359 | 2.0 | 5.0 | 0.00 | 0.00 | 0.00 | 72 | 1012.9 |
| 20260830190044 | 47 | 332 | 3.0 | 5.0 | 0.00 | 0.00 | 0.00 | 74 | 1013.0 |
| 20260830184541 | 46 | 276 | 2.0 | 7.0 | 0.00 | 0.00 | 0.00 | 76 | 1013.1 |
| 20260830183041 | 45 | 359 | 1.0 | 4.0 | 0.00 | 0.00 | 0.00 | 78 | 1013.3 |
| 20260830181535 | 45 | 262 | 1.0 | 6.0 | 0.00 | 0.00 | 0.00 | 80 | 1013.3 |
| 20260830180032 | 44 | 304 | 1.0 | 4.0 | 0.00 | 0.00 | 0.00 | 81 | 1013.3 |
| 20260830174531 | 43 | 359 | 1.0 | 4.0 | 0.00 | 0.01 | 0.00 | 84 | 1013.5 |
| 20260830173027 | 42 | 275 | 0.0 | 4.0 | 0.00 | 0.01 | 0.00 | 86 | 1013.5 |
| 20260830171524 | 41 | 274 | 0.0 | 3.0 | 0.00 | 0.01 | 0.00 | 91 | 1013.6 |
| 20260830170021 | 39 | 275 | 0.0 | 1.0 | 0.00 | 0.01 | 0.00 | 93 | 1013.6 |
| 20260830164530 | 38 | 275 | 0.0 | 2.0 | 0.00 | 0.03 | 0.00 | 94 | 1013.7 |
| 20260830163022 | 38 | 274 | 0.0 | 3.0 | 0.00 | 0.03 | 0.00 | 95 | 1013.7 |
| 20260830161528 | 37 | 274 | 0.0 | 4.0 | 0.00 | 0.03 | 0.00 | 96 | 1013.7 |
| 20260830160020 | 35 | 275 | 1.0 | 4.0 | 0.00 | 0.03 | 0.00 | 96 | 1014.0 |
| 20260830154527 | 34 | 278 | 0.0 | 2.0 | 0.00 | 0.04 | 0.00 | 96 | 1013.9 |
| 20260830153022 | 33 | 278 | 0.0 | 0.0 | 0.00 | 0.04 | 0.00 | 96 | 1013.9 |
| 20260830151518 | 31 | 279 | 0.0 | 0.0 | 0.00 | 0.04 | 0.00 | 95 | 1013.7 |
| 20260830150016 | 31 | 278 | 0.0 | 0.0 | 0.00 | 0.04 | 0.00 | 94 | 1013.7 |
| 20260830144515 | 30 | 278 | 0.0 | 0.0 | 0.00 | 0.05 | 0.00 | 93 | 1013.7 |
| 20260830143022 | 30 | 278 | 0.0 | 0.0 | 0.00 | 0.05 | 0.00 | 93 | 1013.6 |
| 20260830141516 | 31 | 359 | 0.0 | 0.0 | 0.00 | 0.05 | 0.00 | 93 | 1013.5 |
| 20260830140009 | 31 | 359 | 0.0 | 0.0 | 0.00 | 0.05 | 0.00 | 93 | 1013.4 |
| 20260830134509 | 32 | 278 | 0.0 | 2.0 | 0.00 | 0.05 | 0.00 | 94 | 1013.4 |